GW2741 Weather Reports


time (UTC)temp
C
wind
direction
speed
KPH
gust
KPH
rain 1hr
cm
rain 24hr
cm
rain mn
cm
humidity
%
barometer
mb
20260507230643 8 116 1.6 3.2 0.00 0.00 0.00 75 1014.2
20260507225745 8 207 1.6 3.2 0.00 0.00 0.00 75 1014.0
20260507223943 8 175 1.6 3.2 0.00 0.00 0.00 75 1013.8
20260507223043 8 154 1.6 3.2 0.00 0.00 0.00 74 1013.8
20260507222143 8 149 1.6 3.2 0.00 0.00 0.00 74 1013.9
20260507221243 9 172 1.6 4.8 0.00 0.00 0.00 74 1013.8
20260507220343 9 173 1.6 6.4 0.00 0.00 0.00 74 1013.8
20260507215443 9 188 0.0 3.2 0.00 0.00 0.00 74 1013.9
20260507214543 9 192 0.0 3.2 0.00 0.00 0.00 74 1013.8
20260507213643 9 176 0.0 3.2 0.00 0.00 0.00 74 1013.7
20260507212743 9 246 0.0 3.2 0.00 0.00 0.00 73 1013.7
20260507211843 9 248 1.6 3.2 0.00 0.00 0.00 73 1014.0
20260507210943 9 265 3.2 6.4 0.00 0.00 0.00 73 1013.9
20260507205143 10 312 4.8 8.0 0.00 0.00 0.00 72 1013.4
20260507204243 10 286 3.2 6.4 0.00 0.00 0.00 72 1013.3
20260507203343 10 306 4.8 12.9 0.00 0.00 0.00 72 1013.5
20260507202443 10 296 4.8 11.3 0.00 0.00 0.00 72 1013.4
20260507201543 10 293 4.8 12.9 0.00 0.00 0.00 71 1013.4
20260507200643 10 189 1.6 4.8 0.00 0.00 0.00 71 1013.3
20260507195743 10 249 1.6 6.4 0.00 0.00 0.00 71 1013.2
20260507194843 10 293 1.6 3.2 0.00 0.00 0.00 70 1013.2
20260507193943 10 316 1.6 4.8 0.00 0.00 0.00 70 1013.1
20260507193043 10 7 1.6 4.8 0.00 0.00 0.00 68 1012.9
20260507192143 10 114 1.6 6.4 0.00 0.00 0.00 67 1012.8
20260507191243 10 114 1.6 6.4 0.00 0.00 0.00 67 1012.5
20260507190343 10 8 1.6 4.8 0.00 0.00 0.00 65 1012.7
20260507183643 11 311 4.8 8.0 0.00 0.00 0.00 61 1012.5
20260507182743 11 337 6.4 11.3 0.00 0.00 0.00 60 1012.3
20260507181844 11 332 6.4 12.9 0.00 0.00 0.00 56 1012.2
20260507180944 12 287 6.4 12.9 0.00 0.00 0.00 51 1012.1
20260507180044 12 295 6.4 14.5 0.00 0.00 0.00 51 1012.1
20260507175144 12 257 4.8 9.7 0.00 0.00 0.00 52 1012.1
20260507174243 13 269 4.8 8.0 0.00 0.00 0.00 53 1012.2
20260507170643 12 306 11.3 22.5 0.00 0.00 0.00 52 1011.8
20260507165744 13 281 11.3 20.9 0.00 0.00 0.00 52 1012.0
20260507164844 13 267 9.7 17.7 0.00 0.00 0.00 51 1012.0
20260507163943 13 286 6.4 12.9 0.00 0.00 0.00 50 1012.0
20260507161244 13 257 3.2 9.7 0.00 0.00 0.00 47 1011.9
20260507155445 13 244 4.8 14.5 0.00 0.00 0.00 44 1011.9
20260507154543 13 327 4.8 11.3 0.00 0.00 0.00 42 1012.0
20260507153644 14 185 9.7 20.9 0.00 0.00 0.00 41 1011.5
20260507152743 13 159 14.5 22.5 0.00 0.00 0.00 41 1011.9
20260507151844 14 166 14.5 20.9 0.00 0.00 0.00 40 1011.9
20260507150944 14 169 16.1 25.7 0.00 0.00 0.00 36 1011.7
20260507150043 15 175 14.5 27.4 0.00 0.00 0.00 32 1011.6
20260507145144 15 174 9.7 19.3 0.00 0.00 0.00 30 1011.7
20260507144244 16 181 8.0 16.1 0.00 0.00 0.00 30 1011.8
20260507143344 16 130 9.7 16.1 0.00 0.00 0.00 31 1012.0
20260507142443 16 82 8.0 19.3 0.00 0.00 0.00 32 1012.0
20260507141544 15 124 6.4 12.9 0.00 0.00 0.00 33 1012.1
20260507134844 14 151 12.9 19.3 0.00 0.00 0.00 35 1012.1
20260507133944 14 185 11.3 20.9 0.00 0.00 0.00 37 1012.2
20260507133044 14 173 14.5 24.1 0.00 0.00 0.00 40 1012.3
20260507132144 13 166 14.5 22.5 0.00 0.00 0.00 40 1012.4
20260507130344 13 153 16.1 27.4 0.00 0.00 0.00 40 1012.7
20260507125444 13 174 17.7 25.7 0.00 0.00 0.00 40 1012.5
20260507124544 13 169 16.1 24.1 0.00 0.00 0.00 40 1012.3
20260507123644 14 176 14.5 27.4 0.00 0.00 0.00 40 1012.8
20260507122744 13 166 16.1 27.4 0.00 0.00 0.00 40 1012.6
20260507121844 14 150 14.5 27.4 0.00 0.00 0.00 41 1012.5
20260507120944 13 166 16.1 25.7 0.00 0.00 0.00 42 1012.5
20260507120044 13 177 16.1 22.5 0.00 0.00 0.00 42 1012.8
20260507115144 12 168 17.7 27.4 0.00 0.00 0.00 41 1012.7
20260507113344 12 166 12.9 24.1 0.00 0.00 0.00 40 1012.8
20260507112444 13 164 16.1 29.0 0.00 0.00 0.00 40 1012.7
20260507111544 13 154 14.5 25.7 0.00 0.00 0.00 38 1012.6
20260507105744 15 155 14.5 27.4 0.00 0.00 0.00 35 1012.6
20260507104844 15 152 17.7 27.4 0.00 0.00 0.00 35 1012.7
20260507103944 15 163 16.1 27.4 0.00 0.00 0.00 35 1012.5
20260507103044 15 146 14.5 29.0 0.00 0.00 0.00 37 1012.8
20260507102144 14 157 16.1 24.1 0.00 0.00 0.00 40 1012.5
20260507101244 13 169 19.3 29.0 0.00 0.00 0.00 39 1012.7
20260507100344 13 151 16.1 29.0 0.00 0.00 0.00 37 1012.7
20260507095444 13 150 16.1 25.7 0.00 0.00 0.00 38 1012.7
20260507093644 13 158 16.1 27.4 0.00 0.00 0.00 40 1012.5
20260507092744 13 161 16.1 24.1 0.00 0.00 0.00 40 1012.8
20260507091845 12 157 14.5 24.1 0.00 0.00 0.00 40 1012.7
20260507090944 12 151 14.5 27.4 0.00 0.00 0.00 41 1012.9
20260507090044 12 162 14.5 24.1 0.00 0.00 0.00 44 1012.9
20260507085144 12 167 14.5 24.1 0.00 0.00 0.00 45 1013.2
20260507084244 11 170 14.5 24.1 0.00 0.00 0.00 44 1013.2